[[{"header":{"parameterUnit":"m.s-1","parameterCategory":1,"la1":30.2991,"la2":30.254,"lo1":-89.0895,"lo2":-89.0444,"dy":0.0017,"dx":0.0017,"nx":28,"ny":28,"refTime":"2025-08-01T21:00:00:Z","depth":0,"parameterNumber":2,"parameterNumberName":"U-component_of_WINDS"},"data":[0,0,0,0,0,0,0,0,0,0,0,0,0,0,0,0,0,0,0,0,0,0,0,0,0,0,0,0,0,0,0,0,0,0,0,0,0,0,0,0,0,0,0,0,0,0,0,0,0,0,0,0,0,0,0,0,0,0,-0.1489,-0.1489,0,-0.1417,-0.1416,-0.1416,-0.1399,-0.14,-0.14,-0.14,-0.1323,-0.132,-0.1318,0,0,0,0,0,0,0,0,0,0,0,0,0,-0.161,-0.1608,-0.1489,-0.1488,-0.1488,-0.1417,-0.1416,-0.1415,-0.1399,-0.14,-0.14,-0.1401,-0.1324,-0.1321,-0.1318,0,0,0,0,0,0,0,0,0,0,0,0,0,-0.1549,-0.1607,-0.149,-0.1471,-0.1469,-0.1418,-0.1416,-0.1415,-0.1399,-0.14,-0.14,-0.1401,-0.1325,-0.1321,-0.1317,-0.1278,0,0,-0.1306,-0.1304,0,0,0,0,0,0,0,0,-0.1553,-0.1545,-0.1475,-0.1472,-0.1469,-0.1418,-0.143,-0.1369,-0.1399,-0.1425,-0.1401,-0.1401,-0.1354,-0.1347,-0.1332,-0.1275,-0.1271,-0.1305,-0.1303,-0.1301,-0.13,0,0,0,0,0,0,0,-0.1557,-0.1548,-0.1461,-0.1474,-0.147,-0.1465,-0.1458,-0.1419,-0.1386,-0.1423,-0.1422,-0.1413,-0.1352,-0.1336,-0.133,-0.127,-0.1305,-0.1302,-0.13,-0.1298,-0.1177,-0.1176,0,0,0,0,0,0,-0.1565,-0.1552,-0.1463,-0.1459,-0.1514,-0.1462,-0.1454,-0.1434,-0.1386,-0.138,-0.1413,-0.1413,-0.1342,-0.1335,-0.1327,-0.1278,-0.1301,-0.1298,-0.1295,-0.1178,-0.1176,-0.1175,0,0,0,0,0,0,-0.1568,-0.1557,-0.1466,-0.1505,-0.1493,-0.146,-0.1437,-0.1432,-0.1415,-0.1379,-0.1372,-0.1402,-0.1342,-0.1333,-0.1291,-0.1275,-0.1296,-0.1292,-0.1179,-0.1177,-0.1176,-0.118,0,0,0,0,0,0,-0.1571,-0.1558,-0.1544,-0.1505,-0.1491,-0.1432,-0.1436,-0.143,-0.1409,-0.1409,-0.1367,-0.1361,-0.1342,-0.1297,-0.1287,-0.127,-0.129,-0.118,-0.1178,-0.1176,-0.1181,-0.1179,-0.1177,0,0,0,0,0,-0.1575,-0.1547,-0.1543,-0.1533,-0.1472,-0.1431,-0.1423,-0.1403,-0.1408,-0.1393,-0.1369,-0.1362,-0.1279,-0.1292,-0.1281,-0.1264,-0.1181,-0.1179,-0.1177,-0.1182,-0.118,-0.1177,0,0,0,0,0,0,-0.1584,-0.1542,-0.1537,-0.1495,-0.1467,-0.1428,-0.1408,-0.1401,-0.1369,-0.137,-0.1345,-0.1336,-0.1296,-0.1275,-0.1291,-0.1223,-0.123,-0.1225,-0.1238,-0.1235,-0.1233,-0.1238,-0.1286,0,0,0,0,0,-0.1582,-0.1552,-0.1516,-0.1483,-0.1469,-0.1441,-0.1422,-0.141,-0.1379,-0.1366,-0.134,-0.1309,-0.1276,-0.1255,-0.1222,-0.1179,-0.1169,-0.1161,-0.1159,-0.1158,-0.1154,-0.1129,-0.1124,-0.1169,-0.1169,-0.1169,0,0,-0.1575,-0.1548,-0.1531,-0.1484,-0.1461,-0.143,-0.1431,-0.1399,-0.1375,-0.1361,-0.132,-0.13,-0.1264,-0.1221,-0.12,-0.1203,-0.114,-0.1155,-0.1154,-0.1151,-0.1126,-0.1122,-0.1118,-0.1167,-0.1167,-0.1168,0,0,-0.1548,-0.1525,-0.1495,-0.1472,-0.1437,-0.1418,-0.1411,-0.1373,-0.136,-0.1318,-0.1307,-0.1278,-0.1222,-0.1197,-0.1177,-0.1141,-0.1132,-0.1131,-0.112,-0.1096,-0.1092,-0.1089,-0.1075,-0.1071,-0.1127,-0.1127,-0.1127,0,-0.1544,-0.1498,-0.148,-0.1448,-0.1427,-0.1414,-0.1383,-0.1361,-0.1316,-0.1302,-0.1306,-0.1235,-0.121,-0.1161,-0.1152,-0.1136,-0.1126,-0.1135,-0.1094,-0.1091,-0.1088,-0.1074,-0.1069,-0.1127,-0.1127,-0.1127,-0.1127,0,-0.1495,-0.1464,-0.1443,-0.1402,-0.1379,-0.1348,-0.1323,-0.1302,-0.1292,-0.1273,-0.123,-0.12,-0.1161,-0.1149,-0.1138,-0.1098,-0.11,-0.11,-0.1105,-0.1084,-0.1071,-0.1066,-0.1127,-0.1127,-0.1127,-0.1127,0,0,-0.147,-0.142,-0.1412,-0.1394,-0.1354,-0.1329,-0.1297,-0.126,-0.1242,-0.1212,-0.1184,-0.1137,-0.1136,-0.1113,-0.1099,-0.1078,-0.1051,-0.108,-0.1078,-0.1075,-0.1004,-0.1005,-0.0999,-0.1046,-0.1045,-0.1044,-0.1007,0,-0.1437,-0.138,-0.1363,-0.1315,-0.1285,-0.1273,-0.1244,-0.1217,-0.1198,-0.117,-0.1149,-0.1116,-0.1117,-0.1103,-0.1082,-0.1059,-0.1036,-0.1061,-0.1018,-0.1016,-0.1026,-0.0992,-0.0992,-0.0959,-0.1002,-0.1001,-0.1,0,-0.1391,-0.1362,-0.1311,-0.1276,-0.1263,-0.1238,-0.1203,-0.1176,-0.1144,-0.1132,-0.1107,-0.1095,-0.106,-0.1069,-0.1019,-0.1036,-0.1018,-0.1004,-0.1002,-0.0996,-0.1006,-0.0985,-0.0948,-0.0943,-0.0992,-0.0993,-0.0994,0,-0.1377,-0.1325,-0.1288,-0.1272,-0.123,-0.1213,-0.1194,-0.1163,-0.1142,-0.1111,-0.1097,-0.1062,-0.1043,-0.1016,-0.0994,-0.1003,-0.0946,-0.0953,-0.0934,-0.0934,-0.0922,-0.0923,-0.088,-0.0911,-0.0911,-0.0912,-0.0912,0,-0.1342,-0.1311,-0.1281,-0.1258,-0.1223,-0.1203,-0.1168,-0.1149,-0.1122,-0.1094,-0.1081,-0.1055,-0.1029,-0.0999,-0.0982,-0.0943,-0.0934,-0.0923,-0.0918,-0.0923,-0.0925,-0.091,-0.0911,-0.091,-0.091,-0.0911,-0.0911,0,-0.132,-0.1299,-0.1257,-0.1221,-0.1212,-0.1187,-0.1156,-0.1133,-0.1114,-0.1079,-0.107,-0.104,-0.1005,-0.0981,-0.0935,-0.0923,-0.0881,-0.0877,-0.0892,-0.089,-0.0871,-0.0873,-0.0817,-0.0809,-0.0847,-0.0846,-0.0846,0,-0.1298,-0.1274,-0.1236,-0.1218,-0.1199,-0.1169,-0.1148,-0.1127,-0.1106,-0.1068,-0.1049,-0.1013,-0.0983,-0.0926,-0.09,-0.0864,-0.0859,-0.0842,-0.0854,-0.086,-0.0858,-0.0859,-0.0857,-0.084,-0.084,-0.084,-0.0839,0,-0.1262,-0.1253,-0.1224,-0.1191,-0.1166,-0.1139,-0.1111,-0.1096,-0.1071,-0.1047,-0.1011,-0.0988,-0.0942,-0.0906,-0.0868,-0.0848,-0.0839,-0.0836,-0.083,-0.0834,-0.0843,-0.0837,-0.0886,-0.0837,-0.0837,-0.0838,-0.0838,-0.0838,-0.1239,-0.1217,-0.1187,-0.1155,-0.1132,-0.1107,-0.1084,-0.1063,-0.1033,-0.0994,-0.0984,-0.0946,-0.0915,-0.0864,-0.0843,-0.0812,-0.0814,-0.0805,-0.0802,-0.08,-0.0799,-0.0849,-0.0805,-0.0805,-0.0805,-0.0805,-0.0805,0,-0.1201,-0.1181,-0.1152,-0.1115,-0.1089,-0.1085,-0.1055,-0.1033,-0.1001,-0.0973,-0.0944,-0.0902,-0.0867,-0.0839,-0.0803,-0.0784,-0.0779,-0.0775,-0.0775,-0.0771,-0.08,-0.0809,-0.0779,-0.0779,-0.0779,-0.0779,-0.0779,-0.0779,-0.1178,-0.1141,-0.1129,-0.108,-0.106,-0.1024,-0.1007,-0.0984,-0.0961,-0.0916,-0.0887,-0.087,-0.0841,-0.0803,-0.077,-0.0763,-0.0749,-0.0746,-0.0737,-0.0766,-0.0768,-0.0771,-0.0779,-0.0744,-0.0744,-0.071,-0.071,-0.0709]},{"header":{"parameterUnit":"m.s-1","parameterCategory":1,"la1":30.2991,"la2":30.254,"lo1":-89.0895,"lo2":-89.0444,"dy":0.0017,"dx":0.0017,"nx":28,"ny":28,"refTime":"2025-08-01T21:00:00:Z","depth":0,"parameterNumber":3,"parameterNumberName":"V-component_of_WINDS"},"data":[0,0,0,0,0,0,0,0,0,0,0,0,0,0,0,0,0,0,0,0,0,0,0,0,0,0,0,0,0,0,0,0,0,0,0,0,0,0,0,0,0,0,0,0,0,0,0,0,0,0,0,0,0,0,0,0,0,0,0.7046,0.7047,0,0.7074,0.7074,0.7075,0.7072,0.7071,0.7071,0.707,0.71,0.7101,0.7102,0,0,0,0,0,0,0,0,0,0,0,0,0,0.6989,0.699,0.7046,0.7047,0.7047,0.7074,0.7074,0.7075,0.7072,0.7071,0.7071,0.707,0.7099,0.7101,0.7102,0,0,0,0,0,0,0,0,0,0,0,0,0,0.7015,0.6991,0.7046,0.7049,0.7049,0.7074,0.7074,0.7075,0.7072,0.7071,0.7071,0.707,0.7099,0.7101,0.7102,0.7127,0,0,0.7108,0.7109,0,0,0,0,0,0,0,0,0.7014,0.7017,0.7048,0.7048,0.7049,0.7069,0.7065,0.7092,0.7072,0.7063,0.707,0.707,0.709,0.7092,0.7099,0.7128,0.7129,0.7108,0.7109,0.711,0.711,0,0,0,0,0,0,0,0.7012,0.7016,0.7057,0.7048,0.7049,0.7048,0.7051,0.707,0.708,0.7064,0.7064,0.7067,0.709,0.7097,0.71,0.713,0.7108,0.7109,0.7111,0.7111,0.7178,0.7178,0,0,0,0,0,0,0.701,0.7015,0.7056,0.7058,0.7029,0.705,0.7053,0.7063,0.708,0.7082,0.7068,0.7067,0.7095,0.7098,0.7101,0.7129,0.711,0.7111,0.7112,0.7177,0.7178,0.7178,0,0,0,0,0,0,0.7008,0.7013,0.7055,0.7036,0.7042,0.7051,0.7063,0.7064,0.7071,0.7083,0.7084,0.7073,0.7094,0.7098,0.712,0.713,0.7112,0.7114,0.7176,0.7177,0.7178,0.7187,0,0,0,0,0,0,0.7007,0.7013,0.7023,0.7037,0.7043,0.7074,0.7063,0.7065,0.7074,0.7074,0.7088,0.709,0.7094,0.7117,0.7121,0.7132,0.7115,0.7175,0.7177,0.7178,0.7185,0.7188,0.719,0,0,0,0,0,0.7005,0.7025,0.7023,0.7028,0.7055,0.7075,0.7078,0.7082,0.7075,0.7085,0.7092,0.709,0.7128,0.7119,0.7124,0.7136,0.7175,0.7176,0.7178,0.7184,0.7187,0.719,0,0,0,0,0,0,0.7013,0.7027,0.7025,0.705,0.7061,0.7074,0.7087,0.7085,0.7099,0.7097,0.7102,0.7105,0.7126,0.7133,0.7123,0.7159,0.715,0.7153,0.7154,0.7157,0.7159,0.7157,0.7117,0,0,0,0,0,0.7018,0.7032,0.7044,0.7065,0.707,0.7077,0.7086,0.7088,0.7099,0.7104,0.7113,0.7124,0.7138,0.7148,0.7162,0.7186,0.7189,0.7196,0.7198,0.72,0.7202,0.7214,0.7217,0.7184,0.7184,0.7184,0,0,0.7028,0.7037,0.7046,0.7066,0.7075,0.709,0.7081,0.7098,0.7108,0.7107,0.7127,0.7133,0.7146,0.7169,0.7179,0.7175,0.7212,0.7202,0.7203,0.7205,0.7216,0.7219,0.7221,0.7185,0.7184,0.7184,0,0,0.7053,0.7062,0.708,0.7088,0.71,0.7105,0.7109,0.7121,0.7125,0.7145,0.7144,0.7156,0.7182,0.719,0.7198,0.7223,0.7222,0.7228,0.7239,0.725,0.7253,0.7255,0.7263,0.7266,0.723,0.723,0.723,0,0.7064,0.7086,0.7089,0.7105,0.7113,0.7111,0.7128,0.7136,0.7153,0.7158,0.7153,0.7183,0.7192,0.7215,0.7221,0.7228,0.7232,0.7226,0.7252,0.7255,0.7257,0.7265,0.7268,0.7231,0.7231,0.7231,0.723,0,0.7098,0.7113,0.7126,0.7141,0.715,0.7167,0.7171,0.7181,0.7181,0.7185,0.7205,0.7215,0.723,0.7235,0.7237,0.7258,0.7255,0.7251,0.7243,0.7261,0.7268,0.7271,0.7231,0.7231,0.7231,0.7231,0,0,0.7131,0.7146,0.715,0.7156,0.7168,0.718,0.7196,0.721,0.7217,0.7228,0.724,0.7261,0.7256,0.7265,0.7266,0.7276,0.7294,0.7271,0.7271,0.7274,0.7317,0.7319,0.7323,0.7293,0.7293,0.7294,0.7315,0,0.7157,0.7185,0.7186,0.7211,0.7224,0.7221,0.7234,0.7243,0.7247,0.7258,0.7263,0.7276,0.727,0.7275,0.7284,0.729,0.7303,0.7288,0.7304,0.7304,0.73,0.7327,0.733,0.735,0.7318,0.7319,0.7319,0,0.7192,0.7202,0.7228,0.7236,0.7242,0.7254,0.7265,0.7277,0.7286,0.7288,0.7296,0.7296,0.7311,0.7301,0.7321,0.7311,0.7318,0.7321,0.7322,0.7323,0.7313,0.7328,0.7357,0.736,0.7324,0.7324,0.7323,0,0.7212,0.7233,0.725,0.7255,0.7266,0.7274,0.7279,0.7287,0.7295,0.7305,0.7309,0.7321,0.7328,0.7337,0.7339,0.7332,0.7359,0.735,0.736,0.736,0.7366,0.7366,0.7395,0.7371,0.7371,0.7371,0.7371,0,0.724,0.7256,0.7259,0.7269,0.7286,0.7287,0.7303,0.7308,0.7315,0.7326,0.7324,0.7334,0.7337,0.7347,0.7349,0.7365,0.7368,0.737,0.737,0.737,0.7369,0.7374,0.7372,0.7372,0.7371,0.7371,0.7371,0,0.7266,0.7269,0.7287,0.7295,0.7297,0.7309,0.7315,0.7325,0.7328,0.7341,0.7345,0.7349,0.7361,0.7364,0.7379,0.738,0.7398,0.7398,0.7395,0.7395,0.7404,0.7403,0.7438,0.7442,0.7415,0.7416,0.7416,0,0.7284,0.7296,0.7304,0.731,0.7315,0.7326,0.7333,0.7334,0.7342,0.7351,0.736,0.7371,0.7381,0.74,0.7404,0.7415,0.7414,0.7425,0.7416,0.7414,0.7413,0.7412,0.7413,0.7427,0.7428,0.7428,0.7428,0,0.7315,0.7315,0.7325,0.7335,0.7343,0.7351,0.7358,0.7364,0.7366,0.7374,0.7386,0.7393,0.7406,0.7418,0.7428,0.7433,0.743,0.7431,0.7434,0.7433,0.7431,0.7431,0.7399,0.743,0.743,0.743,0.743,0.743,0.7337,0.7346,0.7352,0.7363,0.7368,0.7375,0.7384,0.7387,0.7396,0.7407,0.7407,0.742,0.7426,0.744,0.7445,0.7454,0.7451,0.7455,0.7456,0.7457,0.7457,0.7429,0.7456,0.7456,0.7456,0.7456,0.7456,0,0.7367,0.737,0.738,0.7389,0.7397,0.7393,0.7401,0.7408,0.7418,0.7425,0.7433,0.7446,0.7456,0.746,0.747,0.7477,0.7476,0.7479,0.7479,0.7479,0.746,0.7457,0.748,0.748,0.748,0.748,0.748,0.748,0.7383,0.7398,0.7398,0.7415,0.7419,0.743,0.7434,0.744,0.7445,0.7458,0.7466,0.7469,0.7474,0.7484,0.7493,0.7494,0.7497,0.7501,0.7501,0.7483,0.7481,0.7479,0.7475,0.7502,0.7502,0.7519,0.7519,0.7519]}]]